[[{"header":{"parameterUnit":"m.s-1","parameterCategory":1,"la1":30.2991,"la2":30.254,"lo1":-89.0895,"lo2":-89.0444,"dy":0.0017,"dx":0.0017,"nx":28,"ny":28,"refTime":"2024-07-13T09:00:00:Z","depth":0,"parameterNumber":2,"parameterNumberName":"U-component_of_WINDS"},"data":[0,0,0,0,0,0,0,0,0,0,0,0,0,0,0,0,0,0,0,0,0,0,0,0,0,0,0,0,0,0,0,0,0,0,0,0,0,0,0,0,0,0,0,0,0,0,0,0,0,0,0,0,0,0,0,0,0,0,2.969,2.969,0,2.9698,2.9699,2.9699,2.9598,2.9595,2.9592,2.959,2.9603,2.9606,2.9608,0,0,0,0,0,0,0,0,0,0,0,0,0,2.9589,2.9591,2.969,2.969,2.969,2.9698,2.9699,2.9699,2.9598,2.9595,2.9592,2.9589,2.9602,2.9605,2.9609,0,0,0,0,0,0,0,0,0,0,0,0,0,2.9619,2.9592,2.969,2.9641,2.9637,2.9698,2.9699,2.9699,2.9599,2.9595,2.9591,2.9587,2.9601,2.9605,2.9609,2.9719,0,0,2.9623,2.9625,0,0,0,0,0,0,0,0,2.9617,2.9623,2.9648,2.9645,2.964,2.9643,2.9667,2.9706,2.96,2.9614,2.959,2.9585,2.962,2.9622,2.9633,2.972,2.9721,2.9623,2.9626,2.9628,2.9629,0,0,0,0,0,0,0,2.9615,2.9622,2.9693,2.9649,2.9644,2.9619,2.9619,2.9674,2.964,2.9612,2.9605,2.9607,2.9617,2.9629,2.9633,2.9721,2.9623,2.9627,2.963,2.9631,2.9894,2.9898,0,0,0,0,0,0,2.962,2.9621,2.9693,2.9694,2.9618,2.9625,2.9624,2.9646,2.9639,2.9634,2.961,2.9602,2.9624,2.9628,2.9633,2.9758,2.9628,2.9632,2.9634,2.989,2.9895,2.99,0,0,0,0,0,0,2.9618,2.9627,2.9693,2.9655,2.9662,2.9631,2.9656,2.9649,2.9661,2.9638,2.9631,2.9629,2.9621,2.9627,2.9697,2.9757,2.9634,2.9638,2.9885,2.9891,2.9897,3.0011,0,0,0,0,0,0,2.9615,2.9627,2.9668,2.9657,2.9664,2.9757,2.966,2.9652,2.9668,2.9657,2.9654,2.9649,2.9618,2.9691,2.9702,2.9761,2.9641,2.9879,2.9888,2.9895,3.0002,3.0021,3.0037,0,0,0,0,0,2.9612,2.9702,2.9671,2.968,2.9715,2.9761,2.9765,2.9726,2.9673,2.9714,2.9699,2.9649,2.9749,2.9699,2.971,2.9772,2.9875,2.9885,2.9895,2.9994,3.0017,3.0036,0,0,0,0,0,0,2.9724,2.97,2.9665,2.9754,2.976,2.9744,2.9795,2.9752,2.9774,2.9764,2.9715,2.9715,2.9793,2.979,2.9735,2.9876,2.9803,2.9815,2.9875,2.9896,2.9914,2.9912,2.9645,0,0,0,0,0,2.9759,2.9797,2.9774,2.9855,2.9859,2.9827,2.9845,2.9814,2.9819,2.9821,2.9811,2.9819,2.9851,2.9874,2.9903,3.0001,2.9998,3.0049,3.0066,3.0081,3.0091,3.0139,3.0161,2.9932,2.9932,2.9932,0,0,2.9832,2.9823,2.9851,2.9877,2.9878,2.9918,2.983,2.9877,2.9906,2.9829,2.9893,2.9887,2.9892,2.9976,3.0012,2.9975,3.0154,3.0093,3.0105,3.0108,3.0152,3.0173,3.0192,2.9939,2.9937,2.9936,0,0,2.9984,2.9982,3.0047,3.0049,3.005,3.0027,3.0043,3.0033,3.0024,3.0088,3.0029,3.0064,3.0122,3.0127,3.0137,3.0287,3.0241,3.0299,3.0389,3.0437,3.0455,3.047,3.0521,3.054,3.031,3.031,3.031,0,3.0074,3.0132,3.0086,3.0136,3.0148,3.0078,3.0142,3.0147,3.0159,3.0169,3.0127,3.0195,3.0194,3.0276,3.0312,3.0324,3.0339,3.0298,3.0456,3.0471,3.0485,3.0532,3.0552,3.0317,3.0316,3.0315,3.0315,0,3.0241,3.0282,3.0334,3.0343,3.0362,3.042,3.0382,3.0407,3.0373,3.0355,3.0419,3.0415,3.044,3.0458,3.0428,3.0535,3.0511,3.0464,3.0389,3.0514,3.0558,3.0576,3.0326,3.0324,3.0322,3.032,0,0,3.0465,3.0445,3.0465,3.0467,3.0462,3.0493,3.0546,3.0568,3.0589,3.0599,3.0641,3.0691,3.0645,3.0657,3.0626,3.0668,3.0783,3.0614,3.0613,3.0643,3.0897,3.0931,3.0953,3.0753,3.0756,3.0759,3.0895,0,3.061,3.0698,3.0657,3.075,3.0785,3.0717,3.0763,3.0765,3.0749,3.0777,3.076,3.0794,3.0733,3.0739,3.0777,3.0761,3.0833,3.0751,3.0791,3.0793,3.0789,3.0976,3.1013,3.1142,3.0913,3.0916,3.0918,0,3.0791,3.0805,3.09,3.0884,3.0898,3.094,3.0955,3.0983,3.0983,3.0968,3.098,3.0938,3.0989,3.0916,3.0985,3.093,3.0944,3.0938,3.0942,3.0942,3.0861,3.0979,3.1183,3.1201,3.0945,3.0943,3.0941,0,3.094,3.0983,3.1044,3.1049,3.1033,3.1064,3.1059,3.1055,3.107,3.1084,3.1092,3.1113,3.1124,3.1141,3.1106,3.1057,3.1178,3.1104,3.1166,3.1167,3.1193,3.1192,3.1399,3.1207,3.1207,3.1207,3.1206,0,3.1105,3.1165,3.111,3.1148,3.1213,3.1165,3.1231,3.1219,3.1216,3.1249,3.1194,3.1227,3.118,3.1209,3.1183,3.1241,3.1248,3.1236,3.1228,3.1239,3.124,3.1246,3.1235,3.1212,3.1211,3.121,3.1209,0,3.1282,3.1248,3.1309,3.1288,3.1285,3.1333,3.1315,3.1349,3.1328,3.1371,3.1379,3.1347,3.1377,3.1344,3.1374,3.1355,3.1433,3.1414,3.1432,3.1425,3.1489,3.1482,3.1705,3.1731,3.1526,3.1528,3.1529,0,3.1388,3.1432,3.1414,3.1431,3.1429,3.1459,3.1472,3.1427,3.1444,3.1445,3.1478,3.1503,3.1521,3.1573,3.1552,3.1573,3.1552,3.1628,3.1555,3.1564,3.1549,3.1545,3.1548,3.1643,3.1645,3.1647,3.1649,0,3.1578,3.1558,3.1579,3.1593,3.1609,3.1619,3.1625,3.1643,3.1595,3.1617,3.1645,3.1659,3.1686,3.1711,3.1726,3.1722,3.1677,3.1672,3.1687,3.1698,3.1706,3.1699,3.147,3.1667,3.1665,3.1664,3.1663,3.1662,3.1721,3.1755,3.1746,3.177,3.1769,3.1774,3.1803,3.1784,3.1807,3.1824,3.1797,3.1832,3.1829,3.1843,3.1844,3.1871,3.1838,3.1861,3.1866,3.1872,3.1879,3.1704,3.1874,3.1873,3.1873,3.1872,3.1872,0,3.1905,3.1895,3.1918,3.1925,3.1943,3.1898,3.1901,3.1919,3.195,3.195,3.1967,3.1999,3.2022,3.2003,3.2022,3.2047,3.2027,3.2053,3.205,3.2049,3.1909,3.1893,3.2069,3.2069,3.2069,3.2069,3.2069,3.2069,3.2003,3.2057,3.2035,3.2088,3.2078,3.211,3.2115,3.2119,3.2118,3.2155,3.2173,3.2159,3.2151,3.2168,3.2187,3.2181,3.2189,3.2222,3.2209,3.2078,3.2059,3.204,3.2024,3.2225,3.2225,3.2345,3.2346,3.2347]},{"header":{"parameterUnit":"m.s-1","parameterCategory":1,"la1":30.2991,"la2":30.254,"lo1":-89.0895,"lo2":-89.0444,"dy":0.0017,"dx":0.0017,"nx":28,"ny":28,"refTime":"2024-07-13T09:00:00:Z","depth":0,"parameterNumber":3,"parameterNumberName":"V-component_of_WINDS"},"data":[0,0,0,0,0,0,0,0,0,0,0,0,0,0,0,0,0,0,0,0,0,0,0,0,0,0,0,0,0,0,0,0,0,0,0,0,0,0,0,0,0,0,0,0,0,0,0,0,0,0,0,0,0,0,0,0,0,0,4.3738,4.3739,0,4.3771,4.3771,4.3771,4.3713,4.3711,4.3709,4.3707,4.3736,4.3738,4.3741,0,0,0,0,0,0,0,0,0,0,0,0,0,4.3621,4.3624,4.3738,4.3739,4.3739,4.3771,4.3771,4.3772,4.3713,4.3711,4.3709,4.3706,4.3735,4.3738,4.3741,0,0,0,0,0,0,0,0,0,0,0,0,0,4.3664,4.3624,4.3738,4.3714,4.3712,4.3771,4.3771,4.3772,4.3714,4.3711,4.3708,4.3705,4.3734,4.3737,4.3741,4.3823,0,0,4.3753,4.3755,0,0,0,0,0,0,0,0,4.3662,4.3669,4.3717,4.3716,4.3714,4.3735,4.374,4.3789,4.3715,4.3713,4.3707,4.3704,4.3737,4.3741,4.3753,4.3825,4.3826,4.3753,4.3756,4.3757,4.3758,0,0,0,0,0,0,0,4.3659,4.3667,4.3751,4.3718,4.3716,4.37,4.3703,4.3749,4.3741,4.3713,4.3709,4.3714,4.3736,4.3749,4.3753,4.3826,4.3753,4.3757,4.3759,4.3761,4.3964,4.3967,0,0,0,0,0,0,4.366,4.3665,4.375,4.3752,4.368,4.3704,4.3708,4.3731,4.374,4.3739,4.3716,4.3711,4.3744,4.3749,4.3754,4.3849,4.3757,4.3761,4.3763,4.3961,4.3965,4.3968,0,0,0,0,0,0,4.3658,4.3668,4.3749,4.3707,4.3716,4.371,4.3736,4.3733,4.3747,4.3743,4.3741,4.3732,4.3742,4.3749,4.3806,4.3849,4.3763,4.3766,4.3958,4.3962,4.3967,4.404,0,0,0,0,0,0,4.3654,4.3668,4.37,4.3709,4.3719,4.3802,4.3739,4.3736,4.3754,4.3748,4.3757,4.3756,4.374,4.3801,4.381,4.3853,4.3769,4.3954,4.396,4.3965,4.4034,4.4047,4.4058,0,0,0,0,0,4.365,4.3719,4.3702,4.3712,4.376,4.3805,4.381,4.3793,4.3758,4.3789,4.3787,4.3755,4.3844,4.3807,4.3817,4.3862,4.3951,4.3958,4.3965,4.4029,4.4044,4.4058,0,0,0,0,0,0,4.3713,4.3719,4.3701,4.3774,4.379,4.3795,4.3834,4.381,4.3835,4.3827,4.3803,4.3806,4.3868,4.3871,4.383,4.394,4.3891,4.39,4.3936,4.3951,4.3963,4.396,4.3772,0,0,0,0,0,4.3736,4.3774,4.3777,4.3841,4.385,4.3841,4.386,4.3845,4.386,4.3865,4.3867,4.3881,4.3911,4.3931,4.396,4.4035,4.4035,4.407,4.4082,4.4092,4.41,4.4138,4.4153,4.3991,4.3991,4.3991,0,0,4.3783,4.3791,4.3816,4.3854,4.3864,4.3902,4.3847,4.3889,4.3917,4.3871,4.3925,4.3928,4.3941,4.4008,4.4037,4.4012,4.4145,4.4101,4.4109,4.4111,4.4146,4.4162,4.4175,4.3996,4.3995,4.3994,0,0,4.3887,4.3898,4.3952,4.3964,4.398,4.3974,4.3987,4.3996,4.3996,4.405,4.4017,4.4048,4.4102,4.4112,4.4125,4.4233,4.4204,4.4243,4.4304,4.4342,4.4355,4.4366,4.4402,4.4416,4.4251,4.4251,4.4251,0,4.3942,4.3999,4.3982,4.4027,4.4044,4.4007,4.406,4.4071,4.4096,4.4107,4.408,4.4146,4.4152,4.422,4.4246,4.4258,4.427,4.424,4.4355,4.4365,4.4375,4.441,4.4424,4.4255,4.4255,4.4254,4.4254,0,4.4065,4.4106,4.4147,4.4173,4.4194,4.4244,4.4232,4.4255,4.4239,4.4235,4.429,4.4297,4.4325,4.4341,4.4325,4.4406,4.4389,4.4359,4.4308,4.4396,4.4427,4.444,4.4262,4.426,4.4259,4.4258,0,0,4.4208,4.4224,4.424,4.425,4.4266,4.4296,4.4343,4.4372,4.4391,4.441,4.4446,4.4493,4.4465,4.4479,4.4464,4.4497,4.458,4.4462,4.4462,4.4481,4.4667,4.4688,4.4704,4.4562,4.4564,4.4566,4.4665,0,4.4309,4.4391,4.4377,4.4455,4.4491,4.4456,4.4497,4.451,4.4507,4.4536,4.4533,4.4565,4.4527,4.4535,4.4566,4.4563,4.4616,4.4556,4.4593,4.4595,4.4589,4.472,4.4743,4.4836,4.4677,4.4679,4.4681,0,4.4438,4.4462,4.4545,4.4554,4.4569,4.4606,4.463,4.4659,4.4672,4.4668,4.4685,4.4663,4.4707,4.4658,4.4718,4.4677,4.4692,4.4693,4.4696,4.4697,4.4642,4.4722,4.4865,4.4878,4.4701,4.4699,4.4698,0,4.4531,4.4584,4.464,4.4651,4.4664,4.469,4.4696,4.4707,4.4725,4.4747,4.4757,4.4784,4.4797,4.4817,4.4803,4.4769,4.4864,4.4814,4.486,4.486,4.4879,4.4878,4.5023,4.4893,4.4893,4.4893,4.4892,0,4.4644,4.4695,4.4682,4.4716,4.4772,4.4755,4.481,4.4812,4.4822,4.4854,4.4826,4.4857,4.4837,4.4866,4.4855,4.4905,4.4912,4.4908,4.4904,4.4909,4.4909,4.4916,4.4908,4.4896,4.4895,4.4895,4.4894,0,4.4756,4.475,4.4808,4.4816,4.4819,4.4859,4.4865,4.4896,4.4892,4.4933,4.4942,4.4935,4.4968,4.4956,4.499,4.4983,4.5046,4.5035,4.5041,4.5037,4.5083,4.5078,4.5236,4.5255,4.5115,4.5117,4.5118,0,4.4827,4.4866,4.4879,4.4899,4.4908,4.4941,4.496,4.4944,4.4964,4.4983,4.5011,4.5041,4.5064,4.5117,4.5114,4.514,4.5127,4.5181,4.5131,4.5134,4.5125,4.5122,4.5125,4.519,4.5192,4.5193,4.5194,0,4.4954,4.4949,4.4977,4.5005,4.5028,4.5049,4.5066,4.5084,4.507,4.5094,4.5127,4.5145,4.5181,4.521,4.5233,4.5237,4.5213,4.5211,4.5222,4.5226,4.5228,4.5225,4.5066,4.5206,4.5205,4.5204,4.5204,4.5203,4.5045,4.5078,4.5091,4.5124,4.5136,4.5153,4.5182,4.5183,4.5211,4.5239,4.5228,4.5266,4.5278,4.5307,4.5315,4.5343,4.5322,4.5339,4.5343,4.5347,4.5351,4.5226,4.5347,4.5347,4.5347,4.5346,4.5346,0,4.5168,4.5176,4.5206,4.5232,4.5257,4.5235,4.5253,4.5275,4.5309,4.5323,4.5347,4.5384,4.5413,4.5413,4.5439,4.5462,4.5451,4.5469,4.5465,4.5466,4.537,4.5356,4.5477,4.5477,4.5477,4.5477,4.5477,4.5477,4.5235,4.5287,4.5284,4.5342,4.5348,4.5386,4.5399,4.5414,4.5425,4.5468,4.5493,4.5493,4.5501,4.5527,4.5552,4.5551,4.5561,4.5583,4.5577,4.5486,4.5473,4.5461,4.5448,4.5586,4.5586,4.5671,4.5672,4.5672]}]]